Location: Newark
(31.5350°N, 35.0986°E)
Time: 16:40:12
(UTC+00:00)

Transit 4A - Pass Details

Date: 25 October 2019
Orbit: 868 x 976 km, 66.8° (Epoch: 12 November)

Event Time Altitude Azimuth Distance (km) Brightness Sun altitude
Rises 12:09:24 0° 309° (NW) 3,493 11.0 31.0°
Reaches altitude 10° 12:13:24 10° 283° (WNW) 2,531 10.8 30.4°
Maximum altitude 12:15:54 13° 258° (WSW) 2,314 11.2 30.0°
Drops below altitude 10° 12:18:23 10° 232° (SW) 2,510 11.9 29.6°
Sets 12:22:20 0° 205° (SSW) 3,436 11.8 28.9°
